UnixTime_GMT,Voltage,T_C,TimeOn_s,Wakeup
1482350400000,,,,
1482352381000,15.41,16.4,80742,3828
1482352981000,15.43,16.1,80768,3831
1482353581000,15.42,15.9,80804,3839
1482355381000,15.39,15.4,80966,3857
1482355981000,15.40,15.3,81000,3864
1482356581000,15.42,15.1,81027,3867
1482357181000,15.42,15.0,81063,3875
1482358982000,15.36,14.9,81224,3894
1482359581000,15.39,14.8,81260,3901
1482360181000,15.41,14.7,81285,3904
1482360781000,15.41,14.8,81323,3912
1482362581000,15.36,14.9,81489,3931
1482363181000,15.37,14.8,81524,3938
1482363781000,15.40,14.9,81550,3941
1482364381000,15.41,14.8,81586,3949
1482366182000,15.35,14.8,81749,3968
1482366781000,15.38,14.8,81786,3975
1482367381000,15.40,14.7,81812,3978
1482367981000,15.40,14.7,81850,3986
1482369781000,15.35,14.8,82017,4005
1482370381000,15.38,14.8,82052,4012
1482370981000,15.40,14.8,82078,4015
1482371581000,15.40,14.8,82114,4023
1482373381000,15.35,14.8,82277,4041
1482373981000,15.37,14.9,82312,4048
1482374581000,15.39,14.9,82339,4051
1482375181000,15.40,14.8,82375,4059
1482376981000,15.35,14.9,82542,4078
1482377581000,15.37,14.9,82577,4085
1482378182000,15.39,14.9,82603,4088
1482378781000,15.40,14.9,82638,4096
1482380581000,15.34,14.8,82804,4115
1482381181000,15.37,14.8,82839,4122
1482381781000,15.40,14.7,82865,4125
1482382381000,15.40,14.7,82901,4133
1482384181000,15.34,14.5,83065,4152
1482384781000,15.38,14.4,83101,4159
1482385382000,15.39,14.4,83127,4162
1482385981000,15.40,14.3,83162,4169
1482387781000,15.35,14.3,83327,4188
1482388381000,15.37,14.3,83363,4195
1482388982000,15.39,14.3,83389,4198
1482389581000,15.41,14.2,83424,4206
1482391381000,15.34,14.1,83589,4225
1482391981000,15.37,14.1,83624,4232
1482392581000,15.39,14.1,83650,4235
1482393181000,15.39,14.1,83686,4243
1482394981000,15.34,14.1,83851,4261
1482395581000,15.36,14.1,83886,4268
1482396181000,15.39,14.1,83912,4271
1482396781000,15.39,14.1,83948,4279
1482398581000,15.34,14.2,84116,4298
1482399181000,15.36,14.1,84151,4305
1482399781000,15.38,14.1,84177,4308
1482400381000,15.39,14.1,84217,4318
1482402181000,15.34,14.1,84379,4337
1482402781000,15.36,14.1,84414,4343
1482403381000,15.39,14.0,84440,4346
1482403981000,15.40,14.0,84476,4354
1482405781000,15.34,14.1,84645,4375
1482406381000,15.36,14.0,84682,4382
1482406981000,15.38,14.0,84708,4385
1482407582000,15.40,14.0,84747,4395
1482409381000,15.34,14.0,84909,4414
1482409981000,15.37,14.0,84943,4421
1482410581000,15.38,14.1,84969,4424
1482411181000,15.39,14.1,85006,4432
1482412981000,15.34,14.1,85173,4451
1482413581000,15.37,14.1,85210,4460
1482414181000,15.38,14.2,85236,4463
1482414781000,15.38,14.2,85272,4471
1482416581000,15.34,14.3,85438,4490
1482417181000,15.37,14.2,85473,4497
1482417781000,15.38,14.2,85499,4500
1482418381000,15.39,14.2,85537,4510
1482420181000,15.33,14.2,85705,4531
1482420781000,15.38,14.2,85739,4538
1482421381000,15.38,14.2,85765,4541
1482421981000,15.40,14.3,85803,4551
1482423781000,15.34,14.3,85969,4570
1482424381000,15.37,14.2,86003,4577
1482424981000,15.38,14.2,86029,4580
1482425581000,15.39,14.2,86065,4588
1482427381000,15.34,14.2,86232,4607
1482427981000,15.37,14.2,86268,4614
1482428581000,15.38,14.2,86294,4617
1482429182000,15.40,14.1,86330,4625
1482430981000,15.34,14.2,86494,4643
1482431581000,15.37,14.1,86530,4650
1482432181000,15.38,14.1,86556,4653
1482432781000,15.40,14.1,86593,4661
1482434581000,15.33,14.1,86758,4680
1482435181000,15.37,14.0,86793,4687
1482435781000,15.38,14.1,86819,4690
1482436381000,15.39,14.1,86856,4698
1482438181000,15.34,14.1,87024,4717
1482438781000,15.37,14.1,87059,4724
1482439381000,15.38,14.0,87085,4727
1482439981000,15.39,14.1,87121,4735
1482440581000,15.08,14.3,87213,4742
1482441781000,15.34,14.1,87287,4754
1482442381000,15.37,14.1,87322,4761
1482442981000,15.38,14.1,87348,4764
1482443581000,15.40,14.1,87384,4772
1482445381000,15.34,14.1,87549,4791
1482445981000,15.37,14.2,87585,4797
1482446581000,15.38,14.1,87611,4800
1482447181000,15.39,14.1,87647,4808
1482448981000,15.33,14.1,87815,4827
1482449581000,15.37,14.1,87850,4834
1482450181000,15.38,14.1,87876,4837
1482450781000,15.40,14.1,87913,4845
1482452582000,15.34,14.1,88077,4864
1482453181000,15.36,14.0,88113,4871
1482453781000,15.39,14.0,88138,4874
1482454381000,15.39,14.0,88176,4882
1482456181000,15.34,14.0,88344,4901
1482456781000,15.37,14.0,88379,4908
1482457381000,15.38,13.9,88406,4911
1482457981000,15.40,14.0,88442,4919
1482458581000,15.07,14.1,88533,4926
1482459781000,15.34,14.0,88608,4938
1482460381000,15.37,14.0,88643,4945
1482460981000,15.39,13.9,88670,4948
1482461581000,15.40,13.9,88707,4956
1482463382000,15.35,14.0,88870,4975
1482463981000,15.37,14.0,88907,4982
1482464581000,15.38,13.9,88933,4985
1482465181000,15.40,13.9,88971,4993
1482466981000,15.35,14.0,89139,5012
1482467581000,15.36,14.0,89174,5019
1482468181000,15.39,14.0,89200,5022
1482468781000,15.39,14.0,89236,5030
1482470581000,15.34,14.1,89403,5049
1482471181000,15.37,14.1,89438,5055
1482471781000,15.39,14.1,89464,5058
1482472381000,15.40,14.1,89500,5066
1482474181000,15.33,14.2,89665,5085
1482474781000,15.38,14.2,89700,5092
1482475381000,15.39,14.2,89727,5095
1482475981000,15.40,14.2,89763,5103
1482477781000,15.34,14.3,89929,5124
1482478381000,15.36,14.2,89964,5131
1482478981000,15.38,14.2,89990,5134
1482479581000,15.40,14.2,90026,5142
1482481381000,15.34,14.3,90190,5161
1482481981000,15.38,14.3,90225,5168
1482482581000,15.39,14.2,90251,5171
1482483181000,15.40,14.3,90287,5179
1482484981000,15.34,14.3,90453,5197
1482485581000,15.37,14.3,90488,5204
1482486181000,15.40,14.3,90514,5207
1482486781000,15.40,14.3,90550,5215
1482488581000,15.34,14.3,90716,5234
1482489181000,15.38,14.3,90751,5241
1482489781000,15.40,14.3,90777,5244
1482490381000,15.40,14.3,90813,5252
1482492181000,15.35,14.4,90979,5271
1482492781000,15.37,14.4,91014,5278
1482493381000,15.39,14.3,91040,5281
1482493981000,15.40,14.4,91076,5289
1482495782000,15.35,14.4,91239,5308
1482496381000,15.37,14.5,91275,5315
1482496981000,15.40,14.4,91301,5318
1482497581000,15.40,14.4,91339,5326
1482498181000,15.08,14.6,91433,5333
1482499381000,15.34,14.5,91507,5345
1482499981000,15.37,14.5,91542,5352
1482500581000,15.39,14.4,91568,5355
1482501181000,15.40,14.5,91604,5363
1482502981000,15.35,14.5,91769,5382
1482503581000,15.38,14.5,91804,5389
1482504181000,15.39,14.5,91830,5392
1482504781000,15.40,14.5,91866,5400
1482506581000,15.35,14.5,92031,5419
1482507181000,15.37,14.5,92068,5428
1482507781000,15.39,14.5,92094,5431
1482508381000,15.41,14.6,92130,5439
1482510182000,15.35,14.6,92297,5458
1482510781000,15.37,14.6,92332,5464
1482511381000,15.39,14.6,92357,5467
1482511981000,15.40,14.6,92395,5475
1482513781000,15.34,14.6,92563,5494
1482514381000,15.38,14.6,92598,5501
1482514981000,15.40,14.6,92624,5504
1482515581000,15.40,14.6,92660,5512
1482517381000,15.35,14.7,92826,5531
1482517981000,15.38,14.6,92862,5538
1482518582000,15.40,14.6,92888,5541
1482519181000,15.41,14.6,92922,5548
1482520981000,15.35,14.6,93088,5567
1482521581000,15.38,14.7,93124,5574
1482522181000,15.40,14.7,93150,5577
1482522781000,15.40,14.6,93186,5585
1482524581000,15.35,14.7,93352,5604
1482525181000,15.38,14.7,93386,5611
1482525781000,15.39,14.7,93413,5614
1482526381000,15.41,14.6,93449,5622
1482529381000,15.39,14.7,93674,5651
1482529981000,15.41,14.7,93710,5659
1482530582000,15.08,14.9,93803,5665
1482531181000,15.29,14.8,93828,5668
1482532381000,15.37,14.8,93910,5684
1482532981000,15.39,14.7,93936,5687
1482533582000,15.40,14.7,93972,5695
1482534181000,15.09,14.9,94066,5702
1482535981000,15.37,14.7,94179,5723
1482536581000,15.39,14.8,94205,5726
1482537181000,15.40,14.7,94243,5736
1482538981000,15.35,14.8,94407,5755
1482539581000,15.38,14.8,94444,5764
1482540181000,15.40,14.8,94471,5767
1482540781000,15.40,14.8,94507,5775
1482542581000,15.35,14.9,94671,5794
1482543181000,15.38,14.8,94706,5800
1482543781000,15.40,14.8,94732,5803
1482544381000,15.41,14.8,94768,5811
1482546181000,15.35,14.9,94936,5830
1482546781000,15.39,14.9,94971,5837
1482547381000,15.40,14.9,94997,5840
1482547981000,15.41,14.9,95033,5848
1482549781000,15.35,14.9,95198,5867
1482550381000,15.38,14.9,95235,5876
1482550981000,15.40,14.9,95261,5879
1482551581000,15.41,14.9,95298,5887
1482553381000,15.36,15.1,95467,5906
1482553981000,15.39,15.0,95502,5913
1482554581000,15.40,15.0,95528,5916
1482555181000,15.41,15.0,95566,5926
1482557581000,15.38,15.1,95769,5952
1482558181000,15.39,15.1,95795,5955
1482558781000,15.41,15.1,95833,5965
1482559381000,15.09,15.3,95925,59720
1482560581000,15.36,15.2,95998,5984
1482561181000,15.38,15.2,96034,5991
1482561781000,15.40,15.2,96060,5994
1482562382000,15.41,15.2,96096,6002
1482564781000,15.39,15.4,96297,6029
1482565381000,15.39,15.3,96322,6032
1482565981000,15.41,15.3,96360,6040
1482567781000,15.35,15.4,96528,6059
1482568381000,15.38,15.4,96564,6066
1482568981000,15.40,15.3,96590,6069
1482569581000,15.41,15.3,96628,6079
1482571381000,15.36,15.4,96798,6100
1482571981000,15.39,15.5,96833,6107
1482572581000,15.40,15.4,96859,6110
1482573181000,15.42,15.4,96895,6118
1482604516000,15.39,15.5,98607,6463
1482604982000,15.41,15.4,98634,6466
1482605581000,15.42,15.4,98668,6473
1482606181000,15.10,15.6,98761,6480
1482607344000,15.05,15.6,99434,6484
1482607981000,15.35,15.5,99485,6493
1482608582000,15.39,15.4,99511,6496
1482609181000,15.40,15.4,99551,6506
1482611581000,15.39,15.4,99754,6534
1482612181000,15.41,15.4,99780,6537
1482612781000,15.41,15.4,99819,6547
1482615181000,15.39,15.4,100022,6577
1482615781000,15.41,15.4,100048,6580
1482616382000,15.41,15.4,100088,6590
1482618782000,15.39,15.5,100294,6620
1482619381000,15.41,15.4,100321,6623
1482619981000,15.43,15.4,100360,6633
1482622381000,15.39,15.5,100567,6663
1482622981000,15.40,15.5,100593,6666
1482623581000,15.42,15.4,100632,6676
1482625381000,15.36,15.5,100796,6696
1482625981000,15.40,15.5,100831,6703
1482626581000,15.41,15.5,100858,6706
1482627181000,15.41,15.5,100896,6716
1482629581000,15.39,15.5,101105,6746
1482630181000,15.41,15.5,101130,6749
1482630781000,15.42,15.5,101170,6759
1482633181000,15.39,15.5,101377,6789
1482633781000,15.41,15.5,101403,6792
1482634382000,15.42,15.5,101442,6802
1482636181000,15.37,15.5,101610,6823
1482636781000,15.40,15.5,101647,6832
1482637381000,15.41,15.5,101673,6835
1482637981000,15.41,15.5,101712,6845
1482640381000,15.38,15.5,101916,6874
1482640981000,15.40,15.4,101941,6877
1482641581000,15.42,15.5,101981,6887
1482643381000,15.36,15.5,102147,6908
1482643981000,15.39,15.5,102184,6917
1482644581000,15.40,15.5,102210,6920
1482645181000,15.41,15.5,102248,6930
1482646981000,15.36,15.5,102421,6951
1482647581000,15.39,15.5,102457,6958
1482648182000,15.41,15.5,102483,6961
1482648781000,15.42,15.5,102521,6971
1482652981000,15.11,15.7,102883,7021
1482653581000,15.30,15.5,102909,7024
1482654181000,15.36,15.4,102949,7034
1482654781000,15.39,15.5,102986,7043
1482656581000,15.11,15.6,103151,7063
1482657181000,15.32,15.5,103178,7066
1482657781000,15.36,15.4,103216,7076
1482658381000,15.39,15.5,103253,7085
1482658981000,15.41,15.4,103279,7088
1482659581000,15.39,15.4,103335,7099
1482660181000,15.11,15.6,103428,7105
1482661982000,15.39,15.5,103543,7127
1482662581000,15.41,15.4,103568,7130
1482663181000,15.41,15.4,103608,7140
1482666181000,15.40,15.5,103836,7173
1482666781000,15.41,15.4,103874,7183
1482667381000,15.11,15.6,103967,7190
1482667981000,15.31,15.6,103993,7193
1482669181000,15.38,15.4,104080,7212
1482669781000,15.40,15.4,104106,7215
1482670381000,15.41,15.4,104144,7225
1482672781000,15.38,15.4,104352,7255
1482673381000,15.40,15.4,104379,7258
1482673981000,15.41,15.4,104418,7268
1482676381000,15.39,15.4,104622,7298
1482676981000,15.40,15.3,104648,7301
1482677581000,15.41,15.3,104687,7311
1482679981000,15.39,15.3,104894,7341
1482680581000,15.41,15.2,104920,7344
1482681181000,15.42,15.2,104958,7354
1482683581000,15.39,15.1,105165,7382
1482684181000,15.41,15.1,105191,7385
1482684781000,15.41,15.0,105229,7395
1482687181000,15.38,15.0,105434,7425
1482687781000,15.41,15.0,105461,7428
1482688381000,15.41,15.0,105497,7436
1482690781000,15.38,15.0,105705,7466
1482691381000,15.40,15.0,105731,7469
1482691981000,15.41,15.0,105770,7479
1482693781000,15.36,15.1,105937,7500
1482694381000,15.39,15.0,105972,7507
1482694981000,15.41,15.0,105998,7510
1482695582000,15.41,15.0,106037,7520
1482697981000,15.39,15.1,106244,7550
1482698581000,15.40,15.0,106270,7553
1482699181000,15.41,15.0,106308,7563
1482701581000,15.39,15.0,106514,7593
1482702181000,15.40,15.0,106540,7596
1482702781000,15.42,15.0,106578,7606
1482704581000,15.36,15.1,106746,7627
1482705181000,15.39,15.0,106782,7634
1482705781000,15.41,15.0,106808,7637
1482706382000,15.41,15.0,106847,7647
1482708781000,15.38,15.1,107054,7676
1482709381000,15.40,15.0,107080,7679
1482709981000,15.42,15.0,107120,7689
1482712381000,15.38,15.0,107325,7719
1482712981000,15.40,15.1,107351,7722
1482713581000,15.41,15.0,107387,7730
1482715981000,15.39,15.0,107597,7760
1482716581000,15.40,15.0,107622,7763
1482717181000,15.41,15.0,107662,7773
1482719582000,15.39,15.1,107869,7803
1482720181000,15.40,15.0,107895,7806
1482720781000,15.41,15.0,107933,7816
1482724981000,15.11,15.2,108293,7865
1482725581000,15.31,15.1,108318,7868
1482726181000,15.37,15.1,108358,7878
1482726781000,15.39,15.1,108395,7887
1482728581000,15.10,15.3,108567,7908
1482729182000,15.31,15.2,108593,7911
1482729781000,15.36,15.1,108631,7921
1482730381000,15.37,15.1,108686,7931
1482731581000,15.41,15.0,108753,7944
1482732181000,15.10,15.3,108847,7951
1482732781000,15.31,15.2,108873,7954
1482733381000,15.35,15.1,108921,7965
1482735781000,15.10,15.3,109115,7994
1482736381000,15.30,15.1,109142,7997
1482736981000,15.36,15.1,109180,8007
1482739381000,15.10,15.2,109382,8036
1482739981000,15.30,15.1,109408,8039
1482740581000,15.35,15.0,109446,8048
1482741781000,15.40,15.1,109523,8061
1482742381000,15.41,15.1,109561,8071
1482742981000,15.10,15.3,109653,8078
1482744781000,15.40,15.1,109766,8100
1482745381000,15.41,15.0,109793,8103
1482745981000,15.42,15.0,109831,8112
1482747781000,15.36,15.1,109996,8132
1482748381000,15.39,15.1,110032,8140
1482748981000,15.40,15.0,110058,8143
1482749581000,15.41,15.0,110096,8152
1482751981000,15.39,15.1,110299,8181
1482752581000,15.40,15.0,110325,8184
1482753181000,15.41,15.0,110363,8194
1482754981000,15.36,15.1,110530,8213
1482755581000,15.39,15.1,110567,8222
1482756181000,15.41,15.0,110593,8225
1482756781000,15.41,15.0,110630,8234
1482759181000,15.39,15.0,110833,8263
1482759781000,15.41,15.0,110859,8266
1482760381000,15.41,15.0,110896,8275
1482762781000,15.38,15.0,111103,8303
1482763381000,15.40,15.0,111130,8306
1482763981000,15.40,15.0,111169,8316
1482766381000,15.39,15.1,111373,8344
1482766981000,15.40,15.1,111399,8347
1482767581000,15.41,15.0,111437,8356
1482769381000,15.36,15.1,111605,8376
1482769981000,15.39,15.0,111641,8384
1482770581000,15.40,15.1,111667,8387
1482771181000,15.41,15.1,111704,8396
1482773581000,15.39,15.0,111907,8424
1482774182000,15.40,15.0,111933,8427
1482774781000,15.41,15.1,111970,8436
1482777181000,15.39,15.0,112170,8464
1482777781000,15.40,15.0,112196,8467
1482778381000,15.41,15.0,112235,8477
1482780181000,15.35,15.1,112404,8498
1482780781000,15.39,15.1,112440,8506
1482781381000,15.41,15.0,112467,8509
1482781981000,15.40,15.0,112505,8519
1482783781000,15.36,15.1,112673,8539
1482784381000,15.39,15.1,112711,8548
1482784981000,15.40,15.0,112737,8551
1482785582000,15.41,15.1,112774,8560
1482787981000,15.39,15.1,112979,8589
1482788582000,15.40,15.1,113005,8592
1482789181000,15.42,15.0,113045,8602
1482791581000,15.38,15.1,113249,8631
1482792181000,15.40,15.1,113275,8634
1482792781000,15.41,15.1,113313,8643
1482794581000,15.36,15.2,113480,8663
1482795181000,15.38,15.2,113516,8671
1482795781000,15.41,15.2,113542,8674
1482796381000,15.42,15.1,113580,8684
1482798781000,15.39,15.2,113783,8712
1482799382000,15.40,15.1,113809,8715
1482799981000,15.42,15.1,113848,8725
1482802381000,15.39,15.1,114054,8754
1482802981000,15.40,15.1,114080,8757
1482803581000,15.41,15.1,114117,8766
1482805381000,15.36,15.1,114286,8786
1482805981000,15.39,15.1,114322,8794
1482806581000,15.41,15.1,114348,8797
1482807181000,15.41,15.1,114385,8806
1482808981000,15.36,15.1,114554,8827
1482809581000,15.39,15.1,114589,8835
1482810181000,15.41,15.0,114615,8838
1482810781000,15.41,15.0,114652,8847
1482813181000,15.38,15.0,114860,8877
1482813781000,15.41,15.0,114886,8880
1482814381000,15.41,15.0,114924,8889
1482816782000,15.39,15.0,115130,8919
1482817381000,15.40,15.0,115155,8922
1482817981000,15.41,15.0,115194,8931
1482820381000,15.40,15.1,115399,8961
1482820981000,15.41,15.1,115426,8964
1482821581000,15.41,15.1,115464,8974
1482825181000,15.42,15.1,115731,9014
1482825781000,15.11,15.4,115825,9021
1482826381000,15.30,15.3,115851,9024
1482826981000,15.37,15.2,115888,9033
1482859381000,15.39,15.3,117955,9400
1482859981000,15.40,15.2,117992,9409
1482860581000,15.42,15.2,118018,9412
1482861181000,15.42,15.1,118055,9421
1482861833000,15.12,15.2,118421,9423
1482863581000,15.38,15.1,118594,9445
1482864181000,15.40,15.1,118620,9448
1482864781000,15.41,15.1,118657,9457
1482868381000,15.41,15.1,118918,9497
1482868981000,15.11,15.2,119010,9503
1482869581000,15.30,15.1,119036,9506
1482870781000,15.38,15.1,119122,9523
1482871381000,15.40,15.0,119148,9526
1482871981000,15.41,15.0,119185,9535
1482872581000,15.10,15.2,119278,9542
1482874381000,15.39,15.1,119392,9563
1482874981000,15.41,15.1,119418,9566
1482875581000,15.41,15.0,119457,9576
1482877381000,15.36,15.1,119622,9596
1482877981000,15.39,15.1,119659,9604
1482878581000,15.40,15.1,119685,9607
1482879182000,15.41,15.1,119722,9616
1482881581000,15.38,15.1,119926,9643
1482882181000,15.40,15.0,119952,9646
1482882781000,15.40,15.1,119990,9655
1482884581000,15.36,15.1,120156,9675
1482885181000,15.38,15.0,120193,9683
1482885782000,15.40,15.0,120219,9686
1482886381000,15.42,15.0,120255,9694
1482890581000,15.10,15.2,120615,9741
1482891182000,15.30,15.1,120641,9744
1482891781000,15.37,15.0,120678,9753
1482892381000,15.39,15.0,120715,9761
1482893581000,15.40,15.1,120790,9774
1482894181000,15.10,15.2,120883,9781
1482894781000,15.30,15.1,120909,9784
1482895381000,15.37,15.0,120946,9793
1482897181000,15.41,14.9,121063,9814
1482897781000,15.11,15.1,121155,9821
1482898381000,15.31,15.0,121181,9824
1482899581000,15.39,14.9,121264,9843
1482900181000,15.41,15.0,121290,9846
1482900781000,15.42,14.9,121328,9855
1482901381000,15.10,15.1,121420,9862
1482902581000,15.37,15.0,121490,9874
1482903182000,15.39,15.1,121529,9883
1482903781000,15.40,15.0,121555,9886
1482904381000,15.42,15.0,121592,9895
1482906182000,15.36,15.0,121757,9915
1482906781000,15.38,15.0,121795,9923
1482907381000,15.41,15.0,121820,9926
1482907981000,15.41,15.0,121859,9935
1482912182000,15.10,15.1,122216,9981
1482912781000,15.30,15.0,122241,9984
1482913381000,15.36,15.0,122280,9993
1482913981000,15.38,14.9,122316,10001
1482915181000,15.42,14.9,122391,10014
1482915781000,15.10,15.1,122483,10021
1482916381000,15.30,15.0,122510,10024
1482916981000,15.36,14.9,122547,10033
1482918181000,15.40,14.8,122627,10045
1482918781000,15.41,14.8,122665,10054
1482919381000,15.10,15.0,122757,10061
1482919981000,15.30,15.0,122793,10065
1482921181000,15.38,14.9,122869,10083
1482921781000,15.41,14.9,122895,10086
1482922381000,15.41,14.9,122933,10095
1482924181000,15.36,14.9,123099,10115
1482924781000,15.39,14.9,123136,10123
1482925381000,15.39,14.8,123162,10126
1482925981000,15.41,14.8,123199,10135
1482928381000,15.38,14.8,123405,10164
1482928981000,15.40,14.8,123431,10167
1482929581000,15.41,14.8,123469,10176
1482931381000,15.36,14.8,123635,10196
1482938581000,15.36,14.8,124167,10277
1482939181000,15.39,14.8,124203,10284
1482939781000,15.40,14.7,124229,10287
1482940381000,15.41,14.8,124266,10296
1482942181000,15.36,14.8,124434,10316
1482942781000,15.38,14.8,124470,10323
1482943381000,15.40,14.7,124496,10326
1482943981000,15.41,14.7,124533,10335
1482946381000,15.38,14.7,124736,10364
1482946981000,15.40,14.6,124762,10367
1482947581000,15.41,14.6,124800,10376
1482949981000,15.39,14.6,125007,10404
1482950581000,15.40,14.6,125033,10407
1482951181000,15.40,14.6,125071,10416
1482952981000,15.36,14.6,125238,10436
1482953582000,15.38,14.6,125274,10443
1482954181000,15.41,14.6,125299,10446
1482954781000,15.41,14.6,125338,10455
1482956581000,15.36,14.7,125505,10475
1482957181000,15.38,14.7,125540,10483
1482957781000,15.40,14.7,125566,10486
1482958381000,15.41,14.7,125604,10495
1482960781000,15.39,14.8,125807,10523
1482961381000,15.39,14.7,125833,10526
1482961981000,15.40,14.7,125871,10535
1482963781000,15.36,14.8,126038,10555
1482964381000,15.39,14.7,126075,10563
1482964981000,15.40,14.7,126101,10566
1482965582000,15.41,14.7,126138,10575
1482967381000,15.36,14.8,126307,10595
1482967981000,15.39,14.7,126343,10603
1482968581000,15.40,14.8,126369,10606
1482969181000,15.41,14.7,126406,10615
1482971582000,15.38,14.8,126609,10643
1482972181000,15.40,14.8,126634,10646
1482972781000,15.41,14.8,126674,10656
1482975181000,15.38,14.8,126879,10684
1482975781000,15.40,14.8,126905,10687
1482976381000,15.41,14.9,126943,10696
1482978781000,15.39,14.9,127146,10723
1482979381000,15.41,14.9,127171,10726
1482979981000,15.41,14.9,127211,10736
1482982381000,15.39,14.9,127417,10764
1482982981000,15.40,14.8,127443,10767
1482983581000,15.41,14.7,127482,10776
1482985981000,15.38,14.6,127689,10803
1482986581000,15.39,14.5,127715,10806
1482987181000,15.41,14.5,127754,10815
1482989581000,15.39,14.4,127959,10843
1482990181000,15.40,14.4,127985,10846
1482990781000,15.40,14.4,128024,10855
1482994981000,15.10,14.5,128385,10901
1482995581000,15.29,14.4,128411,10904
1482996181000,15.35,14.4,128448,10913
1482996782000,15.38,14.4,128486,10921
1482998581000,15.08,14.6,128648,10940
1482999181000,15.29,14.5,128675,10943
1482999781000,15.35,14.4,128712,10952
1483000381000,15.37,14.5,128748,10960
1483000981000,15.39,14.5,128774,10963
1483001581000,15.39,14.5,128824,10973
1483002181000,15.09,14.7,128916,10980
1483002781000,15.29,14.6,128942,10983
1483003381000,15.35,14.5,128979,10992
1483003981000,15.38,14.6,129014,11000
1483004581000,15.40,14.6,129040,11003
1483005781000,15.09,14.8,129188,11020
1483007581000,15.38,14.7,129304,11041
1483008181000,15.40,14.7,129330,11044
1483008781000,15.41,14.7,129367,11053
1483015381000,15.39,14.8,129863,11124
1483015981000,15.40,14.8,129901,11133
1483016581000,15.09,15.0,129993,11140
1483017181000,15.30,14.9,130019,11143
1483018381000,15.39,14.9,130107,11161
1483018981000,15.40,14.9,130133,11164
1483019581000,15.41,14.9,130170,11173
1483021981000,15.38,14.9,130373,11201
1483022581000,15.40,14.9,130400,11204
1483023181000,15.40,14.9,130438,11213
1483024981000,15.36,15.0,130603,11233
1483025581000,15.38,15.0,130639,11241
1483026181000,15.40,15.0,130666,11244
1483026781000,15.41,15.0,130703,11253
1483029181000,15.38,15.0,130908,11281
1483029781000,15.40,15.0,130934,11284
1483030381000,15.41,15.0,130972,11293
1483032181000,15.35,15.1,131139,11313
1483032781000,15.39,15.0,131175,11320
1483033381000,15.40,15.0,131200,11323
1483033981000,15.42,15.0,131239,11332
1483036381000,15.39,14.8,131444,11360
1483036981000,15.41,14.8,131470,11363
1483037581000,15.41,14.7,131509,11372
1483039981000,15.38,14.6,131717,11400
1483040581000,15.39,14.6,131743,11403
1483041181000,15.40,14.6,131782,11412
1483043581000,15.38,14.5,131989,11440
1483044181000,15.40,14.4,132015,11443
1483044781000,15.41,14.4,132054,11452
1483046581000,15.35,14.5,132222,11472